SEEDS II (CO-66) (32791 NORAD) Tracking and Keplerian Element Data

This shows tracking and keplerian element data for the satellite.

Feedback or suggestion? Click here.




ElementValue
Catalog32791
NameSEEDS II (CO-66)
Epoch Orbit89425
Epoch Day286.49815604
Epoch Year2024
RAAN257.4024
Inclination97.7036
Eccentricity0.0001721
Argument of Perigee277.2162
Mean Anonmoly82.887
Mean Motion15.08292198
Decay Rate0.00019382
L11 32791U 08021J 24286.49815604 .00019382 00000+0 12515-2 0 9990
L22 32791 97.7036 257.4024 0001721 277.2162 82.8870 15.08292198894254



Live tracking and technical data element details for SEEDS II (CO-66) (NORAD 32791). SEEDS II (CO-66) can be tracked NOW for your location showing map with azimuth and elevation plus other details from your city location.







IsCatalogInMostPopularTable: catalog: 32791, numindb: 414
Update: records affected: 1



GetName: 32791 SEEDS II (CO-66)

Hit Count: updated at: Sat, 25 Jan 2025 00:02:29 GMT